Weather History for SAOC - December, 2012

Change the Weather History Date:

Saturday, December 29, 2012

  Actual Average Record
Temperature  
Mean Temperature 74 °F -  
Max Temperature 89 °F 85 °F - ()
Min Temperature 58 °F 63 °F - ()
Cooling Degree Days 8    
Growing Degree Days 24 (Base 50)    
Moisture  
Dew Point 50 °F    
Average Humidity 46    
Maximum Humidity 94    
Minimum Humidity 14    
Precipitation  
Precipitation 0.00 in 0.16 in - ()
Sea Level Pressure  
Sea Level Pressure 29.79 in    
Wind  
Wind Speed 11 mph ()    
Max Wind Speed 23 mph    
Max Gust Speed -    
Visibility 7.7 miles    
Events      
T = Trace of Precipitation, MM = Missing Value Source: Averaged Metar Reports

Daily Weather History Graph

Daily Weather History Graph

Search for Another Location

Airport or City:

Trip Planner

Search our weather history database for the weather conditions in past years. The results will help you decide how hot, cold, wet, or windy it might be!

Date:

Astronomy

Dec. 29, 2012 Rise Set
Actual Time 6:09 AM ART 8:28 PM ART
Civil Twilight 5:40 AM ART 8:57 PM ART
Nautical Twilight 5:05 AM ART 9:32 PM ART
Astronomical Twilight 4:27 AM ART 10:10 PM ART
Moon 9:15 PM ART (12/29) 7:14 AM ART (12/29)
Length of Visible Light 15h 16m
Length of Day
14h 19m
Full, 99% of the Moon is Illuminated
Dec 29
Full
Jan 5
Last Quarter
Jan 11
New
Jan 18
First Quarter
Jan 27
Full

Hourly Weather History & Observations

Time (ART) Temp. Dew Point Humidity Pressure Visibility Wind Dir Wind Speed Gust Speed Precip Events Conditions
12:00 AM 67 °F 51 °F 46% 29.84 in 9 mi North 6.9 mph - -   Clear
1:00 AM 66.2 °F 48.2 °F 52% 29.89 in - North 10.4 mph - N/A   Clear
2:00 AM 64.4 °F 48.2 °F 56% 29.86 in - North 12.7 mph - N/A   Clear
3:00 AM 65 °F 49 °F 45% 29.79 in 9 mi North 9.2 mph - -  
3:00 AM 64.4 °F 48.2 °F 56% 29.83 in - North 9.2 mph - N/A   Clear
4:00 AM 64.4 °F 48.2 °F 56% 29.83 in - North 11.5 mph - N/A   Clear
5:00 AM 60.8 °F 53.6 °F 77% 29.83 in - North 10.4 mph - N/A   Clear
6:00 AM 59.0 °F 57.2 °F 94% 29.83 in 6.2 mi North 12.7 mph - N/A   Partly Cloudy
7:00 AM 60.8 °F 53.6 °F 77% 29.80 in 6.2 mi North 11.5 mph - N/A   Partly Cloudy
8:00 AM 68.0 °F 51.8 °F 56% 29.80 in 6.2 mi North 13.8 mph - N/A   Partly Cloudy
9:00 AM 69 °F 52 °F 43% 29.79 in 9 mi North 13.8 mph - -  
10:00 AM 78.8 °F 51.8 °F 39% 29.83 in - North 18.4 mph - N/A   Clear
11:00 AM 82.4 °F 48.2 °F 30% 29.80 in - North 16.1 mph - N/A   Clear
12:00 PM 85 °F 50 °F 19% 29.75 in 9 mi North 18.4 mph - -   Clear
3:00 PM 88 °F 46 °F 14% 29.68 in 9 mi NNE 16.1 mph - -   Scattered Clouds
3:00 PM 87.8 °F 44.6 °F 22% 29.74 in - NNE 16.1 mph - N/A   Clear
6:00 PM 84.2 °F 46.4 °F 27% 29.68 in - NNE 23.0 mph - N/A   Clear
8:00 PM 80.6 °F 51.8 °F 37% 29.74 in - NE 16.1 mph - N/A   Clear
9:00 PM 78 °F 51 °F 28% 29.70 in 9 mi NE 13.8 mph - -   Clear
9:00 PM 77.0 °F 50.0 °F 39% 29.74 in 6.2 mi NE 13.8 mph - N/A   Scattered Clouds
10:00 PM 75.2 °F 50.0 °F 41% 29.77 in 6.2 mi North 20.7 mph - N/A   Scattered Clouds
11:00 PM 71.6 °F 51.8 °F 50% 29.77 in - North 18.4 mph - N/A   Scattered Clouds